Regional Weather Roundup
Issued by NWS

Home | Current Version | Previous Version | Text Only | Print | Product List | Glossary On
Versions: 1 2 3 4 5 6 7 8 9 10 11 12 13 14 15 16 17 18 19 20 21 22 23 24 25 26 27 28 29 30 31 32 33 34 35 36 37 38 39 40 41 42 43 44 45 46 47 48 49 50
827
ASUS43 KMKX 270500
RWRWI

WISCONSIN REGIONAL WEATHER ROUNDUP
NATIONAL WEATHER SERVICE MILWAUKEE/SULLIVAN WI
1200 AM CDT FRI MAY 27 2016

NOTE: "FAIR" INDICATES FEW OR NO CLOUDS BELOW 12,000 FEET WITH NO
SIGNIFICANT WEATHER AND/OR OBSTRUCTIONS TO VISIBILITY.

WIZ001-002-006>008-014>016-023>028-270600-
NORTHWEST WISCONSIN

CITY           SKY/WX    TMP DP  RH WIND       PRES   REMARKS
SUPERIOR ARPT  FOG       46  46 100 CALM      29.84S VSB 1/4
ASHLAND        FOG       49  49 100 CALM      29.84S VSB 3/4
HAYWARD        PTCLDY    56  52  86 CALM      29.84R
SIREN          CLOUDY    57  53  86 CALM      29.84R
CUMBERLAND     CLOUDY    61  54  77 CALM      29.85R
RICE LAKE      CLOUDY    63  57  82 CALM      29.86R
CHETEK         CLOUDY    60  57  89 CALM      29.85S
LADYSMITH      CLOUDY    63  56  78 CALM      29.87R
EAU CLAIRE     NOT AVBL
MENOMONIE      CLOUDY    64  54  69 E3        29.84F
NEW RICHMOND   PTCLDY    63  53  68 CALM      29.84R
OSCEOLA        CLOUDY    61  57  88 SE3       29.85S
$$

WIZ003>005-009-010-017-018-270600-
NORTH CENTRAL WISCONSIN

CITY           SKY/WX    TMP DP  RH WIND       PRES   REMARKS
MANITOWISH WTR NOT AVBL
ARBOR VITAE    PTCLDY    62  58  87 CALM      29.86F
WOODRUFF       PTCLDY    62  58  87 CALM      29.86F
RHINELANDER    MOCLDY    61  57  87 CALM      29.87F
EAGLE RIVER      N/A     61  58  89 CALM      29.86F
LAND O LAKES   CLOUDY    58  57  99 CALM      29.87F FOG
PHILLIPS       PTCLDY    62  57  83 SW5       29.86S
TOMAHAWK       PTCLDY    58  56  94 CALM      29.87F
MEDFORD        CLOUDY    59  58  94 CALM      29.86F
MERRILL        PTCLDY    58  58 100 CALM      29.87F
$$

WIZ029-030-035-036-043>047-270600-
CENTRAL WISCONSIN

CITY           SKY/WX    TMP DP  RH WIND       PRES   REMARKS
WAUSAU         CLEAR     63  59  87 SE5       29.85F
MOSINEE        CLEAR     59  57  94 CALM      29.87F
MARSHFIELD     MOCLDY    61  57  87 CALM      29.87R
STEVENS POINT  CLEAR     58  58  98 CALM      29.86F
WAUPACA        CLEAR     62  62  98 CALM      29.86F
WAUTOMA        CLEAR     61  60  97 CALM      29.87R
WISC RAPIDS    PTCLDY    60  57  89 CALM      29.87S
CAMP DOUGLAS   NOT AVBL
$$

WIZ011>013-019>022-031-037>040-048>050-270600-
NORTHEAST WISCONSIN

CITY           SKY/WX    TMP DP  RH WIND       PRES   REMARKS
ANTIGO         PTCLDY    58  56  92 CALM      29.87F
SHAWANO        CLEAR     62  59  90 CALM      29.86F
OCONTO         CLOUDY    56  56 100 CALM      29.85F VSB 1/4
STURGEON BAY   NOT AVBL
GREEN BAY      CLEAR     63  59  87 CALM      29.86F
MANITOWOC      NOT AVBL
APPLETON       CLEAR     64  55  72 CALM      29.85F
CLINTONVILLE   CLEAR     61  59  94 CALM      29.85F
OSHKOSH        CLEAR     61  57  87 CALM      29.87S
$$

WIZ032>034-041-042-053>061-270600-
SOUTHWEST WISCONSIN

CITY           SKY/WX    TMP DP  RH WIND       PRES   REMARKS
LA CROSSE      CLOUDY    68  61  78 SE5       29.85R
SPARTA         CLOUDY    60  59  94 CALM      29.88R
VIROQUA        CLOUDY    69  60  71 S5        29.89R
BOSCOBEL       CLOUDY    65  63  93 CALM      29.87R
PRAIRIE DU CHI CLOUDY    67  62  85 CALM      29.87R
PLATTEVILLE    CLOUDY    70  58  65 E7        29.88S
$$

WIZ056-057-062-063-064-067-068-270600-
SOUTH CENTRAL WISCONSIN

CITY           SKY/WX    TMP DP  RH WIND       PRES   REMARKS
REEDSBURG      MOCLDY    64  62  91 CALM      29.87R
BARABOO/DELLS  MOCLDY    64  58  81 CALM      29.88R
LONE ROCK      NOT AVBL
MINERAL POINT  CLOUDY    72  54  53 CALM      29.89S
MADISON        CLOUDY    65  57  75 CALM      29.88R
MIDDLETON      CLOUDY    64  59  84 CALM      29.89R
WATERTOWN      PTCLDY    64  60  86 CALM      29.87S
MONROE         CLOUDY    73  54  49 CALM      29.89S
JANESVILLE     PTCLDY    68  61  77 CALM      29.88S
$$

WIZ051-052-058>065-066-070>072-270600-
SOUTHEAST WISCONSIN

CITY           SKY/WX    TMP DP  RH WIND       PRES   REMARKS
MILWAUKEE      MOCLDY    67  60  78 CALM      29.87F
WAUKESHA       PTCLDY    63  57  82 CALM      29.89S
MILWAUKEE/TIMM MOCLDY    66  55  68 CALM      29.87F
RACINE         CLOUDY    68  59  73 S6        29.89F
BURLINGTON     PTCLDY    62  60  93 CALM      29.88S
KENOSHA        PTCLDY    68  63  84 CALM      29.88S
FOND DU LAC    CLEAR     61  58  90 CALM      29.87S
SHEBOYGAN      CLOUDY    60  57  89 S3        29.87F
WEST BEND      PTCLDY    63  59  88 CALM      29.88S
JUNEAU         PTCLDY    65  61  86 E7        29.89S
$$

LSZ147-162-270600-
LAKE SUPERIOR

STATION/POSITION TIME  TEMP    WIND        PRES    WAVE
                       AIR SEA DIR/SP/G            HT/PER
                 (UTC) (F)     (DEG/KT/KT) (MB)    (FT/S)
W MID LAKE BUOY  0350   40 38   50/  2/  4 1010.7F   1/ 5
DEVILS ISLAND    0400   45        CALM     1011.0S
PORT WING        0420   44     230/  2/  7 1011.2R
SAXON HARBOR     0440   49      CALM  /  2 1009.8S
$$

LMZ867-665-643>646-270600-
LAKE MICHIGAN

STATION/POSITION TIME  TEMP    WIND        PRES    WAVE
                       AIR SEA DIR/SP/G            HT/PER
                 (UTC) (F)     (DEG/KT/KT) (MB)    (FT/S)
CHAMBERS ISLAND  0400   60     130/  2/  4 1011.5F
N MID LAKE BUOY  0350   48 45  170/  4/  6 1012.0R   2/ 5
NORTHPORT PIER   0400   54     150/  3/  5 1011.9S
SISTER BAY       0420   60     150/  8/ 11   N/A
ALGOMA LAKESHORE 0417             CALM       N/A
KEWAUNEE LAKESHO 0400          270/  3/  4 1011.3F
SHEBOYGAN LAKESH 0400   62     210/  2/  3 1012.1F
PORT WASHINGTON  0400   60      CALM  /  3 1012.5S
S MID LAKE BUOY  0350   57 50  150/  8/  8 1011.7F   0
KENOSHA   LAKESH 0400   64     180/ 11/ 12 1011.5F
$$

TC  - TEMPERATURE IN CELSIUS
VSB - VISIBILITY IN STATUTE MILES
WCI - WIND CHILL INDEX
HX  - HEAT INDEX





USA.gov is the U.S. government's official web portal to all federal, state and local government web resources and services.